Regional Weather Roundup
Issued by NWS

Home | Current Version | Previous Version | Graphics & Text | Print | Product List | Glossary On
Versions: 1 2 3 4 5 6 7 8 9 10 11 12 13 14 15 16 17 18 19 20 21 22 23 24 25 26 27 28 29 30 31 32 33 34 35 36 37 38 39 40 41 42 43 44 45 46 47 48 49 50
000
ASUS44 KMEG 041800
RWRTN
TENNESSEE HOURLY STATE WEATHER ROUNDUP
NATIONAL WEATHER SERVICE MEMPHIS TN
1200 PM CST SUN DEC 04 2016

TNZ002-004-019-021-049-052-054-088>092-041900-
WEST TENNESSEE

CITY           SKY/WX    TMP DP  RH WIND       PRES   REMARKS
MEMPHIS INTL   DRIZZLE   48  47  96 VRB6      29.97F FOG
NWS MEMPHIS      N/A     48 N/A N/A MISG        N/A
JACKSON        CLOUDY    49  46  90 S6        29.95F
DYERSBURG      CLOUDY   N/A N/A N/A NW3       29.97F
UNION CITY     CLOUDY    43  43 100 NW3       29.97F
PARIS          CLOUDY    43  43 100 CALM      29.96F
LEXINGTON      CLOUDY    46  45  93 S8        29.93F
$$

TNZ008-025-027-028-033-062-065-066-041900-
NORTH MIDDLE TENNESSEE

CITY           SKY/WX    TMP DP  RH WIND       PRES   REMARKS
NASHVILLE      CLOUDY    48  44  86 S12       29.96F
CLARKSVILLE    CLOUDY    45  43  93 S6        29.96F
SMYRNA         CLOUDY    47  45  93 SE12      29.98F
CROSSVILLE     RAIN      42  40  92 VRB6      30.01F FOG
$$

TNZ061-075-076-078-094-096-097-041900-
SOUTH MIDDLE TENNESSEE

CITY           SKY/WX    TMP DP  RH WIND       PRES   REMARKS
TULLAHOMA      CLOUDY    45  43  93 SE10      29.97F
WINCHESTER     CLOUDY    45  43  93 SE21      29.96F
MCMINNVILLE    CLOUDY    46  46 100 SE5       29.97F
COLUMBIA       CLOUDY   N/A N/A N/A S5        29.94F
SHELBYVILLE    CLOUDY    46  46 100 SE8       29.98F
$$

TNZ017-018-042-046-047-041900-
NORTHEAST TENNESSEE

CITY           SKY/WX    TMP DP  RH WIND       PRES   REMARKS
TRI CITIES     LGT RAIN  43  41  93 NE5       30.08F FOG
$$

TNZ012-013-036-069-073-074-041900-
CENTRAL EAST TENNESSEE

CITY           SKY/WX    TMP DP  RH WIND       PRES   REMARKS
KNOXVILLE      NOT AVBL
OAK RIDGE      RAIN      42  40  92 CALM      30.08F VSB 3/4
GATLINBURG     CLOUDY    39  39 100 CALM      30.05F
$$

TNZ083-085-099-041900-
SOUTHEAST TENNESSEE

CITY           SKY/WX    TMP DP  RH WIND       PRES   REMARKS
CHATTANOOGA    LGT RAIN  45  43  93 S3        30.06F FOG
$$

SKY/WX REPORTED AS FAIR MEANS FEW OR NO CLOUDS BELOW
12 THOUSAND FEET.





USA.gov is the U.S. government's official web portal to all federal, state and local government web resources and services.